User: anonymous   Login
Location: Unspecified
(0.0000°N, 0.0000°E)
Time: 20:05:43
(UTC+00:00)
Language:

STARLINK-3146 - Orbit

View from above orbital plane
View from above orbital plane
View from above satellite
View from above satellite

Ground track
Ground track

The orbit is defined by the following mean orbital elements,

1 49414U          26145.55419591 +.00000000 +00000-0 -12945-2 0 00006
2 49414  53.2147 244.0615 0001406  65.7163 294.3975 15.08722068    05
Epoch (UTC): 25 May 2026 13:18:02
Eccentricity: 0.0001406
inclination: 53.2147°
perigee height: 539 km
apogee height: 541 km
right ascension of ascending node: 244.0615°
argument of perigee: 65.7163°
revolutions per day: 15.08722068
mean anomaly at epoch: 294.3975°

The dashed part of the orbit path shows where the satellite is in the earth's shadow,  

DLR